When you browse on this site, cookies collect data to enhance your experience and personalize the content and advertising you see.
Visit our Privacy Policy to learn more. By continuing to use the site, you agree to this use of cookies and data.
  • In Spain
  • List of Countries
  • For 7 days
  • Water Temperature
  • Satellite Maps
  • Weather Map
  • Weather Widgets
  • user-avatar
    Login

    Hourly Weather Córdoba

    Today, 24 July, Wednesday

    Time Temperature Precipitation Wind Pressure Humidity
    00:00 +6°C° 0 mm 2 mps 733 mmHg 75%
    01:00 +7°C° 0 mm 1 mps 733 mmHg 75%
    02:00 +7°C° 0 mm 1 mps 733 mmHg 74%
    03:00 +7°C° 0 mm 1 mps 733 mmHg 75%
    04:00 +7°C° 0 mm 1 mps 733 mmHg 75%
    05:00 +7°C° 0 mm 1 mps 733 mmHg 75%
    06:00 +7°C° 0 mm 1 mps 733 mmHg 75%
    07:00 +7°C° 0 mm 1 mps 733 mmHg 74%
    08:00 +7°C° 0 mm 1 mps 733 mmHg 74%
    09:00 +8°C° 0 mm 1 mps 734 mmHg 73%
    10:00 +8°C° 0 mm 1 mps 734 mmHg 71%
    11:00 +9°C° 0 mm 1 mps 734 mmHg 70%
    12:00 +9°C° 0 mm 1 mps 734 mmHg 66%
    13:00 +9°C° 0 mm 1 mps 733 mmHg 63%
    14:00 +9°C° 0 mm 1 mps 733 mmHg 60%
    15:00 +10°C° 0 mm 1 mps 732 mmHg 58%
    16:00 +10°C° 0 mm 1 mps 732 mmHg 57%
    17:00 +9°C° 0 mm 0 mps 732 mmHg 56%
    18:00 +8°C° 0 mm 0 mps 732 mmHg 59%
    19:00 +7°C° 0 mm 0 mps 732 mmHg 62%
    20:00 +6°C° 0 mm 0 mps 732 mmHg 66%
    21:00 +7°C° 0 mm 1 mps 732 mmHg 67%
    22:00 +7°C° 0 mm 1 mps 732 mmHg 68%
    23:00 +7°C° 0 mm 1 mps 732 mmHg 69%

    Tomorrow, 25 July, Thursday

    Time Temperature Precipitation Wind Pressure Humidity
    00:00 +5°C° 0 mm 0 mps 732 mmHg 70%
    01:00 +5°C° 0 mm 0 mps 731 mmHg 70%
    02:00 +5°C° 0 mm 0 mps 731 mmHg 70%
    03:00 +5°C° 0 mm 0 mps 731 mmHg 70%
    04:00 +5°C° 0 mm 0 mps 730 mmHg 69%
    05:00 +4°C° 0 mm 0 mps 730 mmHg 69%
    06:00 +5°C° 0 mm 0 mps 730 mmHg 67%
    07:00 +5°C° 0 mm 0 mps 730 mmHg 65%
    08:00 +6°C° 0 mm 0 mps 730 mmHg 64%
    09:00 +8°C° 0 mm 1 mps 730 mmHg 56%
    10:00 +9°C° 0 mm 1 mps 730 mmHg 49%
    11:00 +10°C° 0 mm 1 mps 730 mmHg 41%
    12:00 +11°C° 0 mm 1 mps 730 mmHg 39%
    13:00 +11°C° 0 mm 1 mps 729 mmHg 38%
    14:00 +11°C° 0 mm 1 mps 728 mmHg 36%
    15:00 +11°C° 0 mm 1 mps 728 mmHg 35%
    16:00 +11°C° 0 mm 1 mps 728 mmHg 34%
    17:00 +10°C° 0 mm 2 mps 727 mmHg 34%
    18:00 +10°C° 0 mm 1 mps 728 mmHg 37%
    19:00 +9°C° 0 mm 1 mps 728 mmHg 41%
    20:00 +6°C° 0 mm 0 mps 728 mmHg 44%
    21:00 +6°C° 0 mm 0 mps 728 mmHg 46%
    22:00 +6°C° 0 mm 0 mps 728 mmHg 48%
    23:00 +5°C° 0 mm 0 mps 728 mmHg 51%

    Day after tomorrow, 26 July, Friday

    Time Temperature Precipitation Wind Pressure Humidity
    00:00 +5°C° 0 mm 0 mps 728 mmHg 51%
    01:00 +5°C° 0 mm 0 mps 728 mmHg 52%
    02:00 +6°C° 0 mm 1 mps 728 mmHg 52%
    03:00 +6°C° 0 mm 1 mps 728 mmHg 53%
    04:00 +6°C° 0 mm 1 mps 728 mmHg 54%
    05:00 +6°C° 0 mm 1 mps 728 mmHg 55%
    06:00 +6°C° 0 mm 1 mps 728 mmHg 54%
    07:00 +7°C° 0 mm 1 mps 729 mmHg 53%
    08:00 +8°C° 0 mm 1 mps 730 mmHg 51%
    09:00 +10°C° 0 mm 1 mps 730 mmHg 45%
    10:00 +13°C° 0 mm 1 mps 730 mmHg 39%
    11:00 +16°C° 0 mm 1 mps 731 mmHg 33%
    12:00 +18°C° 0 mm 1 mps 730 mmHg 31%
    13:00 +18°C° 0 mm 1 mps 730 mmHg 29%
    14:00 +18°C° 0 mm 2 mps 729 mmHg 27%
    15:00 +18°C° 0 mm 2 mps 729 mmHg 29%
    16:00 +17°C° 0 mm 2 mps 729 mmHg 30%
    17:00 +16°C° 0 mm 2 mps 729 mmHg 32%
    18:00 +15°C° 0 mm 2 mps 729 mmHg 36%
    19:00 +13°C° 0 mm 2 mps 730 mmHg 40%
    20:00 +12°C° 0 mm 2 mps 730 mmHg 44%
    21:00 +12°C° 0 mm 1 mps 730 mmHg 45%
    22:00 +12°C° 0 mm 1 mps 730 mmHg 46%
    23:00 +11°C° 0 mm 1 mps 731 mmHg 46%

    27 July, Saturday

    Time Temperature Precipitation Wind Pressure Humidity
    00:00 +11°C° 0 mm 1 mps 730 mmHg 48%
    01:00 +10°C° 0 mm 1 mps 730 mmHg 49%
    02:00 +10°C° 0 mm 1 mps 730 mmHg 50%
    03:00 +10°C° 0 mm 1 mps 730 mmHg 52%
    04:00 +9°C° 0 mm 1 mps 730 mmHg 53%
    05:00 +9°C° 0 mm 1 mps 730 mmHg 55%
    06:00 +9°C° 0 mm 1 mps 730 mmHg 55%
    07:00 +9°C° 0 mm 1 mps 730 mmHg 55%
    08:00 +9°C° 0 mm 1 mps 731 mmHg 55%
    09:00 +10°C° 0 mm 2 mps 731 mmHg 49%
    10:00 +13°C° 0 mm 3 mps 731 mmHg 43%
    11:00 +16°C° 0 mm 3 mps 731 mmHg 37%
    12:00 +17°C° 0 mm 4 mps 730 mmHg 35%
    13:00 +17°C° 0 mm 4 mps 730 mmHg 34%
    14:00 +17°C° 0 mm 5 mps 729 mmHg 33%
    15:00 +16°C° 0 mm 5 mps 728 mmHg 36%
    16:00 +17°C° 0 mm 4 mps 728 mmHg 39%
    17:00 +15°C° 0 mm 4 mps 728 mmHg 42%
    18:00 +13°C° 0 mm 4 mps 728 mmHg 49%
    19:00 +11°C° 0 mm 3 mps 728 mmHg 56%
    20:00 +10°C° 0 mm 2 mps 728 mmHg 63%
    21:00 +9°C° 0 mm 2 mps 728 mmHg 69%
    22:00 +9°C° 0 mm 2 mps 728 mmHg 74%
    23:00 +8°C° 0 mm 2 mps 728 mmHg 80%

    28 July, Sunday

    Time Temperature Precipitation Wind Pressure Humidity
    00:00 +8°C° 0 mm 2 mps 728 mmHg 82%
    01:00 +8°C° 0 mm 2 mps 728 mmHg 83%
    02:00 +8°C° 0 mm 2 mps 728 mmHg 85%
    03:00 +8°C° 0 mm 2 mps 728 mmHg 86%
    04:00 +8°C° 0 mm 2 mps 728 mmHg 87%
    05:00 +8°C° 0 mm 3 mps 727 mmHg 88%
    06:00 +8°C° 0 mm 3 mps 727 mmHg 87%
    07:00 +8°C° 0 mm 3 mps 728 mmHg 86%
    08:00 +9°C° 0 mm 3 mps 728 mmHg 85%
    09:00 +10°C° 0 mm 3 mps 728 mmHg 78%
    10:00 +12°C° 0 mm 4 mps 728 mmHg 71%
    11:00 +13°C° 0 mm 4 mps 728 mmHg 64%
    12:00 +14°C° 0 mm 4 mps 727 mmHg 61%
    13:00 +15°C° 0 mm 4 mps 726 mmHg 59%
    14:00 +17°C° 0 mm 4 mps 725 mmHg 57%
    15:00 +15°C° 0 mm 4 mps 725 mmHg 60%
    16:00 +14°C° 0 mm 4 mps 725 mmHg 64%
    17:00 +13°C° 0 mm 3 mps 725 mmHg 68%
    18:00 +12°C° 0 mm 3 mps 725 mmHg 74%
    19:00 +12°C° 0 mm 2 mps 725 mmHg 80%
    20:00 +10°C° 0 mm 2 mps 726 mmHg 86%
    21:00 +10°C° 0 mm 2 mps 726 mmHg 86%
    22:00 +9°C° 0 mm 2 mps 726 mmHg 87%
    23:00 +9°C° 0 mm 2 mps 726 mmHg 88%

    29 July, Monday

    Time Temperature Precipitation Wind Pressure Humidity
    00:00 +10°C° 0 mm 1 mps 726 mmHg 89%
    01:00 +10°C° 0 mm 1 mps 726 mmHg 90%
    02:00 +8°C° 0 mm 0 mps 726 mmHg 91%
    03:00 +8°C° 0 mm 0 mps 726 mmHg 90%
    04:00 +8°C° 0 mm 0 mps 726 mmHg 89%
    05:00 +9°C° 0 mm 1 mps 726 mmHg 88%
    06:00 +9°C° 0 mm 1 mps 726 mmHg 86%
    07:00 +10°C° 0 mm 1 mps 726 mmHg 83%
    08:00 +10°C° 0 mm 1 mps 727 mmHg 81%
    09:00 +13°C° 0 mm 1 mps 727 mmHg 70%
    10:00 +15°C° 0 mm 1 mps 727 mmHg 59%
    11:00 +19°C° 0 mm 1 mps 728 mmHg 48%
    12:00 +20°C° 0 mm 1 mps 727 mmHg 45%
    13:00 +20°C° 0 mm 2 mps 727 mmHg 42%
    14:00 +21°C° 0 mm 2 mps 726 mmHg 39%
    15:00 +20°C° 0 mm 2 mps 726 mmHg 42%
    16:00 +19°C° 0 mm 2 mps 726 mmHg 44%
    17:00 +19°C° 0 mm 2 mps 726 mmHg 46%
    18:00 +17°C° 0 mm 2 mps 726 mmHg 56%
    19:00 +15°C° 0 mm 2 mps 726 mmHg 65%
    20:00 +14°C° 0 mm 2 mps 726 mmHg 74%
    21:00 +13°C° 0 mm 2 mps 726 mmHg 77%
    22:00 +13°C° 0 mm 2 mps 726 mmHg 79%
    23:00 +11°C° 0 mm 3 mps 726 mmHg 82%
    Show more